Location: St. Louis
(38.6270°N, 90.1994°W)
Time: 04:48:00
(UTC-05:00)

RS-15 - Pass Details

Date: 27 January 2022
Orbit: 1881 x 2163 km, 64.8° (Epoch: 20 May)

Event Time Altitude Azimuth Distance (km) Brightness Sun altitude
Rises 01:29:14 0° 327° (NNW) 5,662 10.5 -64.0°
Enters shadow 01:31:48 - 331° (NNW) 4,973 10.2 -63.6°
Exits shadow 01:54:15 17° 115° (ESE) 4,045 9.7 -60.2°
Drops below altitude 10° 01:56:31 10° 120° (ESE) 4,622 10.1 -59.9°
Sets 02:00:07 0° 126° (SE) 5,596 10.6 -59.3°
